Weather History for KPRB - September, 2014

Change the Weather History Date:

Sunday, September 28, 2014

  Actual Average Record
Temperature  
Mean Temperature 64 °F 67 °F  
Max Temperature 75 °F 85 °F 107 °F (2010)
Min Temperature 53 °F 48 °F 39 °F (1964)
Degree Days  
Heating Degree Days 1 2  
Month to date heating degree days 1 19  
Since 1 July heating degree days 1 27  
Cooling Degree Days 0 3  
Month to date cooling degree days 238 152  
Year to date cooling degree days 1245 885  
Growing Degree Days 13 (Base 50)    
Moisture  
Dew Point 50 °F    
Average Humidity 65    
Maximum Humidity 86    
Minimum Humidity 44    
Precipitation  
Precipitation 0.00 in 0.01 in 1.61 in (1976)
Month to date precipitation 0.00 0.19  
Year to date precipitation 4.46 9.09  
Since 1 July precipitation T 0.30  
Sea Level Pressure  
Sea Level Pressure 29.90 in    
Wind  
Wind Speed 6 mph (SSW)    
Max Wind Speed 18 mph    
Max Gust Speed 26 mph    
Visibility 10 miles    
Events      
T = Trace of Precipitation, MM = Missing Value Source: NWS Daily Summary

Daily Weather History Graph

Daily Weather History Graph

Search for Another Location

Airport or City:

Trip Planner

Search our weather history database for the weather conditions in past years. The results will help you decide how hot, cold, wet, or windy it might be!

Date:

Astronomy

Sep. 28, 2014 Rise Set
Actual Time 6:55 AM PDT 6:50 PM PDT
Civil Twilight 6:29 AM PDT 7:15 PM PDT
Nautical Twilight 6:00 AM PDT 7:45 PM PDT
Astronomical Twilight 5:30 AM PDT 8:15 PM PDT
Moon 11:05 AM PDT (9/28) 9:47 PM PDT (9/28)
Length of Visible Light 12h 46m
Length of Day
11h 55m
Waxing Crescent, 20% of the Moon is Illuminated
Sep 28
Waxing Crescent
Oct 1
First Quarter
Oct 8
Full
Oct 15
Last Quarter
Oct 23
New

Hourly Weather History & Observations

Time (PDT) Temp. Dew Point Humidity Pressure Visibility Wind Dir Wind Speed Gust Speed Precip Events Conditions
12:53 AM 57.9 °F 52.0 °F 81% 29.86 in 10.0 mi WNW 9.2 mph - N/A   Clear
1:53 AM 55.9 °F 51.1 °F 84% 29.86 in 10.0 mi WSW 4.6 mph - N/A   Clear
2:53 AM 55.0 °F 50.0 °F 83% 29.86 in 10.0 mi SW 5.8 mph - N/A   Clear
3:53 AM 54.0 °F 48.9 °F 83% 29.86 in 10.0 mi SSW 5.8 mph - N/A   Scattered Clouds
4:03 AM 54.0 °F 50.0 °F 86% 29.88 in 10.0 mi SSW 6.9 mph - N/A   Mostly Cloudy
4:53 AM 54.0 °F 48.9 °F 83% 29.86 in 10.0 mi SSW 5.8 mph - N/A   Overcast
5:53 AM 55.0 °F 48.9 °F 80% 29.88 in 10.0 mi Calm Calm - N/A   Overcast
6:44 AM 53.1 °F 48.0 °F 83% 29.91 in 10.0 mi Calm Calm - N/A   Overcast
6:53 AM 54.0 °F 48.0 °F 80% 29.90 in 10.0 mi Calm Calm - N/A   Overcast
7:01 AM 54.0 °F 48.0 °F 80% 29.90 in 10.0 mi South 3.5 mph - N/A   Overcast
7:10 AM 54.0 °F 48.0 °F 80% 29.90 in 10.0 mi Variable 4.6 mph - N/A   Overcast
7:53 AM 55.0 °F 48.9 °F 80% 29.91 in 10.0 mi SSE 3.5 mph - N/A   Overcast
8:23 AM 55.9 °F 48.9 °F 77% 29.93 in 10.0 mi Calm Calm - N/A   Overcast
8:53 AM 57.0 °F 48.9 °F 74% 29.93 in 10.0 mi South 3.5 mph - N/A   Overcast
9:53 AM 60.1 °F 51.1 °F 72% 29.95 in 10.0 mi NE 3.5 mph - N/A   Overcast
10:53 AM 62.1 °F 51.1 °F 67% 29.95 in 10.0 mi Calm Calm - N/A   Overcast
11:53 AM 66.0 °F 51.1 °F 59% 29.93 in 10.0 mi Variable 3.5 mph - N/A   Mostly Cloudy
12:26 PM 68.0 °F 50.0 °F 52% 29.93 in 10.0 mi North - - N/A   Scattered Clouds
12:53 PM 70.0 °F 50.0 °F 49% 29.90 in 10.0 mi North - - N/A   Clear
1:53 PM 72.0 °F 50.0 °F 46% 29.89 in 10.0 mi SSW 11.5 mph - N/A   Clear
2:53 PM 73.9 °F 50.0 °F 43% 29.87 in 10.0 mi South 9.2 mph 16.1 mph N/A   Clear
3:53 PM 73.0 °F 51.1 °F 46% 29.87 in 10.0 mi SSW 16.1 mph - N/A   Clear
4:53 PM 71.1 °F 52.0 °F 51% 29.86 in 10.0 mi SSW 16.1 mph - N/A   Clear
5:53 PM 70.0 °F 51.1 °F 51% 29.86 in 10.0 mi SSW 10.4 mph - N/A   Scattered Clouds
6:53 PM 66.0 °F 50.0 °F 56% 29.87 in 10.0 mi SSW 13.8 mph - N/A   Mostly Cloudy
7:53 PM 64.0 °F 50.0 °F 60% 29.89 in 10.0 mi North - - N/A   Overcast
8:53 PM 63.0 °F 50.0 °F 63% 29.91 in 10.0 mi SSW 6.9 mph - N/A   Overcast
9:53 PM 62.1 °F 51.1 °F 67% 29.92 in 10.0 mi SSW 5.8 mph - N/A   Mostly Cloudy
10:53 PM 60.1 °F 50.0 °F 69% 29.93 in 10.0 mi South 3.5 mph - N/A   Partly Cloudy
11:53 PM 59.0 °F 51.1 °F 75% 29.94 in 10.0 mi SW 4.6 mph - N/A   Clear